Date_and_time,latitude,longitude,wind_speed,RelWindDirFrom,WindDirFrom,air_pressure,air_temperature,relative_humidity,Temp,platform_speed_wrt_ground,air_pressure_at_mean_sea_level,platform_orientation
2018-07-10 00:00,50.91173,-96.9825233333333,6.7,9.4,283,992.50,26.1,26,25.24,0.0,1018.01,47.9
2018-07-10 00:10,50.9117283333333,-96.9825233333333,5.1,8.5,297,992.50,26.2,25,25.25,0.0,1018.01,47.9
2018-07-10 00:20,50.9117166666667,-96.9825233333333,5.1,9.6,316,992.46,26.2,25,25.18,0.0,1017.97,47.9
2018-07-10 00:30,50.91173,-96.98253,4.1,6.8,314,992.52,26.3,26,25.10,0.0,1018.03,47.9
2018-07-10 00:40,50.9117266666667,-96.9825266666667,5.1,8.6,298,992.46,26.1,27,25.05,0.0,1017.98,47.9
2018-07-10 00:50,50.9117266666667,-96.982525,5.5,8.3,279,992.46,25.8,27,25.03,0.0,1017.99,47.9
2018-07-10 01:00,50.91173,-96.982525,5.5,7.1,284,992.59,25.6,28,25.03,0.0,1018.13,270.0
2018-07-10 01:10,50.91173,-96.982525,5.6,8.6,283,992.69,25.5,27,25.01,0.0,1018.23,270.0
2018-07-10 01:20,50.91173,-96.982525,5.5,7.3,282,992.76,25.4,28,24.97,0.0,1018.33,270.0
2018-07-10 01:30,50.9117283333333,-96.982525,3.9,5.7,270,992.84,25.2,29,24.90,0.0,1018.42,270.0
2018-07-10 01:40,50.9117283333333,-96.9825266666667,4.3,5.9,256,992.86,25.0,30,24.83,0.0,1018.44,270.0
2018-07-10 01:50,50.9117266666667,-96.9825266666667,4.3,5.6,254,992.96,24.7,32,24.76,0.0,1018.56,270.0
2018-07-10 02:00,50.9117266666667,-96.9825266666667,4.0,5.4,263,992.99,24.2,33,24.65,0.0,1018.61,90.0
2018-07-10 02:10,50.9117383333333,-96.9825433333333,2.1,5.5,345,992.91,23.5,37,24.47,0.0,1018.55,90.0
2018-07-10 02:20,50.9117366666667,-96.9825283333333,2.8,4.8,355,992.98,22.7,39,24.23,0.0,1018.65,90.0
2018-07-10 02:30,50.9117383333333,-96.98253,2.2,3.3,337,992.90,22.0,44,23.96,0.0,1018.61,90.0
2018-07-10 02:40,50.911735,-96.9825283333333,3.3,5.0,314,992.98,21.6,46,23.57,0.0,1018.73,90.0
2018-07-10 02:50,50.9117383333333,-96.98251,2.0,3.5,342,993.03,21.6,49,23.25,0.0,1018.78,90.0
2018-07-10 03:00,50.9117333333333,-96.982525,1.7,2.9,336,993.14,20.9,55,22.92,0.0,1018.93,270.0
2018-07-10 03:10,50.911735,-96.98252,1.9,3.3,54,993.24,21.1,65,22.62,0.0,1019.04,270.0
2018-07-10 03:20,50.911735,-96.9825216666667,1.0,2.6,32,993.52,21.0,65,22.46,0.0,1019.34,270.0
2018-07-10 03:30,50.911735,-96.982525,2.1,3.2,24,993.44,20.4,69,22.19,0.0,1019.28,270.0
2018-07-10 03:40,50.9117266666667,-96.9825,4.0,7.0,350,993.45,19.4,71,22.00,0.0,1019.36,270.0
2018-07-10 03:50,50.9117266666667,-96.9825166666667,4.9,6.6,24,993.42,19.9,62,21.82,0.0,1019.32,270.0
2018-07-10 04:00,50.911725,-96.9825133333333,5.9,6.9,12,993.62,20.9,58,21.73,0.0,1019.52,119.5
2018-07-10 04:10,50.91173,-96.9825066666667,5.8,7.5,25,993.62,21.3,53,21.77,0.0,1019.53,119.5
2018-07-10 04:20,50.911735,-96.982525,4.7,8.9,21,993.55,21.0,52,21.79,0.0,1019.51,119.5
2018-07-10 04:30,50.91173,-96.9825283333333,4.3,6.4,348,993.59,19.1,60,21.67,0.0,1019.66,119.5
2018-07-10 04:40,50.91173,-96.9825266666667,3.9,6.1,14,993.36,19.9,54,21.50,0.0,1019.37,119.5
2018-07-10 04:50,50.9117316666667,-96.9825266666667,2.4,3.2,357,993.36,19.7,55,21.34,0.0,1019.42,119.5
2018-07-10 05:00,50.91173,-96.982525,2.6,4.3,17,993.46,19.8,56,21.31,0.0,1019.50,90.0
2018-07-10 05:10,50.91173,-96.982525,2.0,3.1,356,993.60,19.8,56,21.29,0.0,1019.65,90.0
2018-07-10 05:20,50.9117316666667,-96.9825266666667,3.0,4.4,346,993.52,19.4,58,21.19,0.0,1019.62,90.0
2018-07-10 05:30,50.911725,-96.9825333333333,3.5,4.3,337,993.57,18.7,61,21.15,0.0,1019.74,90.0
2018-07-10 05:40,50.911725,-96.9825316666667,3.3,4.5,1,993.49,18.6,61,21.01,0.0,1019.65,90.0
2018-07-10 05:50,50.911725,-96.98253,4.4,5.4,30,993.22,19.6,58,20.91,0.0,1019.27,90.0
2018-07-10 06:00,50.911725,-96.98253,4.1,5.5,29,993.12,20.2,58,20.85,0.0,1019.13,142.5
2018-07-10 06:10,50.9117116666667,-96.9825383333333,4.0,5.8,32,993.09,20.0,60,20.81,0.0,1019.13,142.5
2018-07-10 06:20,50.911745,-96.9825183333333,2.7,4.6,32,993.20,20.0,61,20.70,0.0,1019.32,142.5
2018-07-10 06:30,50.9117316666667,-96.98253,2.3,3.5,31,993.26,20.1,60,20.69,0.0,1019.35,142.5
2018-07-10 06:40,50.9117316666667,-96.9825283333333,2.3,3.4,33,993.34,20.4,60,20.78,0.0,1019.42,142.5
2018-07-10 06:50,50.91173,-96.98253,3.1,4.0,40,993.34,20.5,59,20.80,0.0,1019.41,142.5
2018-07-10 07:00,50.9117316666667,-96.98253,2.8,3.5,38,993.41,20.7,59,20.85,0.0,1019.47,299.5
2018-07-10 07:10,50.9117316666667,-96.98253,3.1,4.1,51,993.41,20.7,60,20.80,0.0,1019.49,299.5
2018-07-10 07:20,50.91173,-96.9825316666667,0.6,3.3,34,993.52,20.3,61,20.78,0.0,1019.66,299.5
2018-07-10 07:30,50.91173,-96.9825316666667,0.7,1.9,164,993.54,19.9,65,20.63,0.0,1019.70,299.5
2018-07-10 07:40,50.91172,-96.982535,1.4,2.2,134,993.37,19.8,66,20.68,0.0,1019.48,299.5
2018-07-10 07:50,50.9117233333333,-96.9825283333333,0.9,2.4,86,993.19,19.7,68,20.83,0.0,1019.28,299.5
2018-07-10 08:00,50.911725,-96.982525,1.2,2.3,57,993.10,18.7,72,20.68,0.0,1019.24,142.5
2018-07-10 08:10,50.911725,-96.982525,3.0,4.1,49,993.14,18.9,74,20.70,0.0,1019.27,142.5
2018-07-10 08:20,50.9117266666667,-96.9825266666667,1.3,3.1,98,993.25,19.8,73,20.68,0.0,1019.34,142.5
2018-07-10 08:30,50.911725,-96.9825283333333,0.7,3.4,151,993.31,19.5,76,20.60,0.0,1019.39,142.5
2018-07-10 08:40,50.911725,-96.9825283333333,2.9,4.9,99,993.26,20.5,75,20.60,0.0,1019.30,142.5
2018-07-10 08:50,50.9117216666667,-96.9824866666667,1.7,4.1,93,993.05,21.0,77,20.65,0.0,1019.05,142.5
2018-07-10 09:00,50.9117166666667,-96.98251,6.6,9.6,122,992.86,20.4,76,20.61,0.0,1018.88,144.0
2018-07-10 09:10,50.9117183333333,-96.9825183333333,6.4,7.4,132,993.01,21.2,70,20.76,0.0,1019.01,144.0
2018-07-10 09:20,50.9117116666667,-96.982525,6.7,8.0,122,992.88,21.5,70,20.98,0.0,1018.89,144.0
2018-07-10 09:30,50.9117366666667,-96.9825366666667,5.5,7.0,120,992.86,21.5,73,21.18,0.0,1018.88,144.0
2018-07-10 09:40,50.9117266666667,-96.9825333333333,4.4,5.5,94,992.82,21.9,76,21.33,0.0,1018.82,144.0
2018-07-10 09:50,50.9117283333333,-96.98253,3.5,6.0,87,992.76,21.6,78,21.33,0.0,1018.82,144.0
2018-07-10 10:00,50.9117283333333,-96.98253,1.9,5.4,67,992.69,20.4,80,21.15,0.0,1018.79,90.0
2018-07-10 10:10,50.9117283333333,-96.98253,1.9,4.9,77,992.63,19.8,83,21.04,0.0,1018.72,90.0
2018-07-10 10:20,50.9117283333333,-96.9825283333333,3.9,6.1,100,992.71,19.9,84,20.79,0.0,1018.81,90.0
2018-07-10 10:30,50.9117283333333,-96.9825283333333,1.0,4.0,105,992.80,19.9,85,20.50,0.0,1018.85,90.0
2018-07-10 10:40,50.9117266666667,-96.9825283333333,0.9,2.9,44,992.91,19.4,86,20.23,0.0,1018.96,90.0
2018-07-10 10:50,50.9117266666667,-96.9825283333333,1.3,2.8,65,992.96,18.8,90,20.04,0.0,1019.07,90.0
2018-07-10 11:00,50.9117266666667,-96.98253,1.9,3.1,29,993.03,18.5,93,19.99,0.0,1019.12,360.0
2018-07-10 11:10,50.9117366666667,-96.9825333333333,1.0,3.5,44,993.14,17.7,91,19.95,0.0,1019.25,360.0
2018-07-10 11:20,50.91174,-96.9825316666667,0.3,1.6,86,993.22,18.3,98,19.88,0.0,1019.31,360.0
2018-07-10 11:30,50.9117366666667,-96.982515,0.5,1.8,187,993.24,18.7,94,19.88,0.0,1019.29,360.0
2018-07-10 11:40,50.91173,-96.9825166666667,0.9,2.0,205,993.28,18.9,95,19.88,0.0,1019.34,360.0
2018-07-10 11:50,50.9117266666667,-96.9825216666667,1.2,2.0,201,993.35,19.3,91,20.01,0.0,1019.45,360.0
2018-07-10 12:00,50.9117266666667,-96.9825233333333,1.2,2.1,189,993.44,19.9,83,20.13,0.0,1019.54,360.0
2018-07-10 12:10,50.911755,-96.9825166666667,0.7,1.8,162,993.58,20.2,80,20.28,0.0,1019.67,360.0
2018-07-10 12:20,50.9117283333333,-96.98252,1.8,2.9,183,993.69,20.3,77,20.48,0.0,1019.77,360.0
2018-07-10 12:30,50.9117316666667,-96.98252,2.1,3.5,162,993.73,20.2,81,20.67,0.0,1019.84,360.0
2018-07-10 12:40,50.91173,-96.9825216666667,3.0,3.8,167,993.86,20.0,86,20.86,0.0,1020.02,360.0
2018-07-10 12:50,50.91173,-96.9825233333333,3.5,4.6,170,993.95,20.0,89,21.03,0.0,1020.12,360.0
2018-07-10 13:00,50.9117216666667,-96.982515,3.8,6.1,161,993.93,20.5,89,21.18,0.0,1020.11,170.2
2018-07-10 13:10,50.911725,-96.9825316666667,9.1,10.7,152,993.90,21.2,79,21.34,0.0,1020.03,170.2
2018-07-10 13:20,50.9117233333333,-96.9825333333333,9.2,10.4,150,993.86,21.4,77,21.49,0.0,1019.95,170.2
2018-07-10 13:30,50.91172,-96.98253,8.5,9.6,150,993.85,21.4,66,21.62,0.0,1019.93,170.2
2018-07-10 13:40,50.9117216666667,-96.9825283333333,8.8,10.6,152,993.85,21.5,60,21.73,0.0,1019.91,170.2
2018-07-10 13:50,50.9117233333333,-96.9825266666667,8.9,10.2,152,993.87,21.5,61,21.82,0.0,1019.91,170.2
2018-07-10 14:00,50.9117233333333,-96.982525,8.4,9.7,152,993.89,21.6,62,21.90,0.0,1019.91,360.0
2018-07-10 14:10,50.9117533333333,-96.98252,7.7,8.8,142,993.84,21.5,70,21.96,0.0,1019.85,360.0
2018-07-10 14:20,50.9117366666667,-96.9825283333333,7.9,8.8,136,993.78,21.5,68,22.02,0.0,1019.80,360.0
2018-07-10 14:30,50.9117416666667,-96.98254,8.4,9.7,136,993.76,21.6,64,22.10,0.0,1019.78,360.0
2018-07-10 14:40,50.9117366666667,-96.98253,8.5,10.1,129,993.70,21.4,71,22.15,0.0,1019.73,360.0
2018-07-10 14:50,50.9117366666667,-96.9825316666667,8.6,10.2,131,993.68,21.4,73,22.18,0.0,1019.69,360.0
2018-07-10 15:00,50.911735,-96.9825283333333,9.0,10.5,135,993.68,21.4,68,22.20,0.0,1019.66,312.1
2018-07-10 15:10,50.9117216666667,-96.9825083333333,9.4,10.7,133,993.65,21.5,63,22.22,0.0,1019.62,312.1
2018-07-10 15:20,50.9116933333333,-96.98247,8.8,10.3,133,993.64,21.5,62,22.26,0.0,1019.60,312.1
2018-07-10 15:30,50.911695,-96.9824733333333,9.4,10.7,133,993.60,21.6,59,22.25,0.0,1019.55,312.1
2018-07-10 15:40,50.9116733333333,-96.98241,8.4,9.9,129,993.56,21.6,59,22.23,0.0,1019.51,312.1
2018-07-10 15:50,50.9116766666667,-96.9824233333333,8.6,10.1,132,993.54,21.7,58,22.22,0.0,1019.48,312.1
2018-07-10 16:00,50.9116466666667,-96.98233,8.4,9.8,128,993.42,21.8,60,22.20,0.0,1019.36,123.2
2018-07-10 16:10,50.911645,-96.98232,7.6,9.2,126,993.34,21.8,60,22.13,0.0,1019.28,123.2
2018-07-10 16:20,50.9116166666667,-96.9822283333333,7.5,8.9,129,993.30,22.0,58,22.20,0.0,1019.22,123.2
2018-07-10 16:30,50.9116166666667,-96.982225,7.3,8.3,132,993.29,21.9,58,22.34,0.0,1019.23,123.2
2018-07-10 16:40,50.9115883333333,-96.9821616666667,7.0,8.4,139,993.36,22.0,57,22.53,0.0,1019.29,123.2
2018-07-10 16:50,50.9115883333333,-96.9821583333333,6.8,8.2,146,993.27,22.2,54,22.72,0.0,1019.19,123.2
2018-07-10 17:00,50.91157,-96.9821133333333,7.6,8.7,153,993.28,22.3,54,22.91,0.0,1019.19,121.5
2018-07-10 20:50,50.91144,-96.9818366666667,8.3,9.4,124,991.50,25.4,60,24.72,0.0,1017.13,117.4
2018-07-10 21:00,50.9114433333333,-96.98186,8.3,9.5,122,991.34,26.5,57,24.82,0.0,1016.91,137.8
2018-07-10 21:10,50.91143,-96.981835,8.7,9.9,118,991.21,28.6,53,24.28,0.0,1016.70,137.8
2018-07-10 21:20,50.9114683333333,-96.9807666666667,8.9,10.6,119,991.12,29.1,51,23.90,0.2,1016.59,137.8
2018-07-10 21:30,50.9114383333333,-96.9805533333333,8.4,9.3,112,991.02,25.5,62,24.09,0.0,1016.62,137.8
2018-07-10 21:40,50.9114366666667,-96.98055,8.2,9.1,113,991.00,24.6,65,23.90,0.0,1016.64,137.8
2018-07-10 21:50,50.910825,-96.9800083333333,8.1,9.6,112,990.95,24.6,65,23.30,0.3,1016.58,137.8
2018-07-10 22:00,50.9018133333333,-96.9719266666667,11.5,16.0,123,990.73,24.6,66,23.75,3.7,1016.36,146.8
2018-07-10 22:10,50.8855083333333,-96.9562416666667,14.8,17.8,135,990.39,24.6,65,23.67,6.9,1016.01,146.8
2018-07-10 22:20,50.857285,-96.9356916666667,18.2,19.2,148,990.08,24.8,66,23.72,11.2,1015.69,146.8
2018-07-10 22:30,50.8283166666667,-96.918515,17.2,19.5,152,989.98,25.1,63,23.85,11.1,1015.57,146.8
2018-07-10 22:40,50.79685,-96.9247333333333,14.8,16.9,172,990.04,25.2,62,23.92,11.4,1015.57,146.8
2018-07-10 22:50,50.7653266666667,-96.9298633333333,14.0,15.6,168,990.01,25.1,67,23.81,11.4,1015.50,146.8
2018-07-10 23:00,50.7337916666667,-96.932975,14.4,15.6,177,989.85,25.2,65,23.90,11.4,1015.23,170.1
2018-07-10 23:10,50.7027833333333,-96.9378483333333,13.5,14.2,176,989.74,25.4,66,23.93,11.2,1015.10,170.1
2018-07-10 23:20,50.6719066666667,-96.9437416666667,12.4,13.4,174,989.69,25.5,64,23.85,11.2,1015.19,170.1
2018-07-10 23:30,50.641,-96.9489983333333,12.4,13.5,180,989.54,25.8,62,23.82,11.2,1015.07,170.1
2018-07-10 23:40,50.6279,-96.9791566666667,7.0,12.0,223,989.54,25.9,62,24.01,8.3,1015.07,170.1
2018-07-10 23:50,50.63046,-96.98075,1.4,3.8,68,989.60,26.6,63,24.54,1.0,1015.10,170.1
